Location: Lewisville
(33.0462°N, 96.9942°W)
Time: 11:06:19
(UTC-06:00)

X-37B - Pass Details

Date: 04 December 2021
Orbit: 334 x 337 km, 45.0° (Epoch: 11 January)

Event Time Altitude Azimuth Distance (km) Brightness Sun altitude
Rises 19:23:25 0° 253° (WSW) 2,093 5.7 -25.1°
Reaches altitude 10° 19:25:30 10° 263° (W) 1,259 4.2 -25.5°
Enters shadow 19:26:20 17° 272° (W) 955 3.4 -25.7°
